Location: Narrabri
(30.3170°S, 149.7830°E)
Time: 14:09:56
(UTC+11:00)

Envisat - Visible Passes

Search period start: 16 November 2018 00:00
Search period end: 26 November 2018 00:00
Orbit: 764 x 766 km, 98.2° (Epoch: 15 November)

Date Brightness Start Highest point End Pass type
(mag) Time Alt. Az. Time Alt. Az. Time Alt. Az.
16 Nov 2.9 20:32:23 10° SSE 20:37:32 72° ENE 20:42:35 10° N visible
16 Nov 6.2 22:15:11 10° WSW 22:15:51 10° WSW 22:16:30 10° WSW visible
17 Nov 3.9 19:56:18 10° SE 20:00:42 28° E 20:05:03 10° NNE visible
17 Nov 5.2 21:35:23 10° SSW 21:39:32 25° WSW 21:43:39 10° NW visible
18 Nov 3.6 20:57:58 10° S 21:03:02 61° WSW 21:08:02 10° NNW visible
19 Nov 3.1 20:21:18 10° SSE 20:26:20 54° E 20:31:18 10° N visible
19 Nov 5.9 22:02:19 10° SW 22:04:49 14° WSW 22:07:17 10° W visible
20 Nov 4.8 21:23:55 10° S 21:28:26 32° WSW 21:32:55 10° NW visible
21 Nov 3.1 20:46:43 10° S 20:51:52 79° WSW 20:56:57 10° NNW visible
22 Nov 3.4 20:10:17 10° SSE 20:15:08 41° E 20:19:54 10° N visible
22 Nov 5.7 21:50:24 10° SSW 21:53:44 18° WSW 21:57:05 10° WNW visible
23 Nov 4.3 21:12:30 10° S 21:17:19 41° WSW 21:22:04 10° NW visible
24 Nov 2.9 20:35:32 10° SSE 20:40:42 80° ENE 20:45:47 10° N visible
25 Nov 5.4 21:38:43 10° SSW 21:42:40 23° WSW 21:46:35 10° WNW visible
